When you browse on this site, cookies collect data to enhance your experience and personalize the content and advertising you see.
Visit our Privacy Policy to learn more. By continuing to use the site, you agree to this use of cookies and data.
  • In Czech Republic
  • List of Countries
  • For 7 days
  • Water Temperature
  • Satellite Maps
  • Weather Map
  • Weather Widgets
  • user-avatar
    Login

    Hourly Weather Adelaide

    Today, 19 January, Saturday

    Time Temperature Precipitation Wind Pressure Humidity
    00:00 +19°C° 0 mm 4 mps 760 mmHg 76%
    01:00 +19°C° 0 mm 4 mps 760 mmHg 76%
    02:00 +18°C° 0 mm 3 mps 761 mmHg 76%
    03:00 +18°C° 0 mm 2 mps 761 mmHg 75%
    04:00 +18°C° 0 mm 3 mps 761 mmHg 74%
    05:00 +18°C° 0 mm 3 mps 762 mmHg 73%
    06:00 +18°C° 0 mm 3 mps 762 mmHg 72%
    07:00 +20°C° 0 mm 3 mps 762 mmHg 64%
    08:00 +22°C° 0 mm 3 mps 762 mmHg 56%
    09:00 +26°C° 0 mm 3 mps 763 mmHg 42%
    10:00 +27°C° 0 mm 3 mps 763 mmHg 40%
    11:00 +28°C° 0 mm 4 mps 762 mmHg 37%
    12:00 +29°C° 0 mm 4 mps 762 mmHg 34%
    13:00 +29°C° 0 mm 4 mps 762 mmHg 34%
    14:00 +29°C° 0 mm 5 mps 761 mmHg 35%
    15:00 +29°C° 0 mm 4 mps 761 mmHg 34%
    16:00 +28°C° 0 mm 4 mps 761 mmHg 38%
    17:00 +26°C° 0 mm 5 mps 761 mmHg 41%
    18:00 +24°C° 0 mm 6 mps 761 mmHg 45%
    19:00 +22°C° 0 mm 5 mps 761 mmHg 51%
    20:00 +21°C° 0 mm 5 mps 762 mmHg 57%
    21:00 +19°C° 0 mm 4 mps 762 mmHg 62%
    22:00 +19°C° 0 mm 4 mps 762 mmHg 63%
    23:00 +19°C° 0 mm 4 mps 762 mmHg 63%

    Tomorrow, 20 January, Sunday

    Time Temperature Precipitation Wind Pressure Humidity
    00:00 +19°C° 0 mm 4 mps 762 mmHg 64%
    01:00 +19°C° 0 mm 4 mps 762 mmHg 64%
    02:00 +19°C° 0 mm 4 mps 761 mmHg 65%
    03:00 +19°C° 0 mm 4 mps 761 mmHg 65%
    04:00 +19°C° 0 mm 4 mps 761 mmHg 63%
    05:00 +19°C° 0 mm 4 mps 762 mmHg 62%
    06:00 +19°C° 0 mm 4 mps 762 mmHg 60%
    07:00 +21°C° 0 mm 3 mps 762 mmHg 52%
    08:00 +25°C° 0 mm 3 mps 762 mmHg 44%
    09:00 +27°C° 0 mm 3 mps 762 mmHg 35%
    10:00 +29°C° 0 mm 3 mps 761 mmHg 31%
    11:00 +31°C° 0 mm 2 mps 761 mmHg 27%
    12:00 +34°C° 0 mm 2 mps 760 mmHg 23%
    13:00 +34°C° 0 mm 3 mps 760 mmHg 24%
    14:00 +34°C° 0 mm 4 mps 759 mmHg 25%
    15:00 +34°C° 0 mm 4 mps 759 mmHg 27%
    16:00 +32°C° 0 mm 4 mps 759 mmHg 34%
    17:00 +30°C° 0 mm 5 mps 759 mmHg 41%
    18:00 +28°C° 0 mm 5 mps 759 mmHg 48%
    19:00 +26°C° 0 mm 5 mps 759 mmHg 55%
    20:00 +25°C° 0 mm 5 mps 759 mmHg 62%
    21:00 +22°C° 0 mm 5 mps 759 mmHg 70%
    22:00 +22°C° 0 mm 4 mps 759 mmHg 70%
    23:00 +22°C° 0 mm 4 mps 759 mmHg 70%

    Day after tomorrow, 21 January, Monday

    Time Temperature Precipitation Wind Pressure Humidity
    00:00 +22°C° 0 mm 4 mps 758 mmHg 70%
    01:00 +22°C° 0 mm 3 mps 758 mmHg 71%
    02:00 +22°C° 0 mm 3 mps 758 mmHg 72%
    03:00 +23°C° 0 mm 2 mps 758 mmHg 72%
    04:00 +23°C° 0 mm 2 mps 758 mmHg 71%
    05:00 +23°C° 0 mm 2 mps 758 mmHg 69%
    06:00 +24°C° 0 mm 2 mps 758 mmHg 67%
    07:00 +26°C° 0 mm 2 mps 758 mmHg 58%
    08:00 +29°C° 0 mm 1 mps 758 mmHg 50%
    09:00 +32°C° 0 mm 1 mps 758 mmHg 41%
    10:00 +35°C° 0 mm 2 mps 757 mmHg 36%
    11:00 +36°C° 0 mm 2 mps 757 mmHg 31%
    12:00 +38°C° 0 mm 3 mps 756 mmHg 26%
    13:00 +38°C° 0 mm 3 mps 756 mmHg 27%
    14:00 +37°C° 0 mm 4 mps 755 mmHg 27%
    15:00 +37°C° 0 mm 4 mps 755 mmHg 28%
    16:00 +36°C° 0 mm 4 mps 755 mmHg 32%
    17:00 +34°C° 0 mm 4 mps 755 mmHg 35%
    18:00 +33°C° 0 mm 4 mps 755 mmHg 39%
    19:00 +30°C° 0 mm 4 mps 755 mmHg 45%
    20:00 +28°C° 0 mm 4 mps 756 mmHg 51%
    21:00 +26°C° 0 mm 3 mps 756 mmHg 56%
    22:00 +26°C° 0 mm 3 mps 756 mmHg 57%
    23:00 +25°C° 0 mm 3 mps 756 mmHg 57%

    22 January, Tuesday

    Time Temperature Precipitation Wind Pressure Humidity
    00:00 +25°C° 0 mm 3 mps 756 mmHg 57%
    01:00 +25°C° 0 mm 2 mps 755 mmHg 57%
    02:00 +25°C° 0 mm 2 mps 755 mmHg 56%
    03:00 +25°C° 0 mm 2 mps 754 mmHg 56%
    04:00 +25°C° 0 mm 2 mps 754 mmHg 54%
    05:00 +26°C° 0 mm 1 mps 754 mmHg 51%
    06:00 +27°C° 0 mm 1 mps 754 mmHg 49%
    07:00 +30°C° 0 mm 1 mps 754 mmHg 42%
    08:00 +33°C° 0 mm 1 mps 755 mmHg 35%
    09:00 +36°C° 0 mm 1 mps 755 mmHg 29%
    10:00 +38°C° 0 mm 2 mps 754 mmHg 27%
    11:00 +39°C° 0 mm 3 mps 754 mmHg 25%
    12:00 +40°C° 0 mm 3 mps 753 mmHg 23%
    13:00 +40°C° 0 mm 4 mps 753 mmHg 23%
    14:00 +40°C° 0 mm 4 mps 752 mmHg 23%
    15:00 +40°C° 0 mm 4 mps 752 mmHg 22%
    16:00 +38°C° 0 mm 4 mps 752 mmHg 24%
    17:00 +37°C° 0 mm 4 mps 752 mmHg 25%
    18:00 +36°C° 0 mm 4 mps 752 mmHg 27%
    19:00 +34°C° 0 mm 4 mps 753 mmHg 34%
    20:00 +30°C° 0 mm 5 mps 753 mmHg 40%
    21:00 +28°C° 0 mm 5 mps 754 mmHg 47%
    22:00 +27°C° 0 mm 5 mps 754 mmHg 48%
    23:00 +26°C° 0 mm 5 mps 754 mmHg 49%

    23 January, Wednesday

    Time Temperature Precipitation Wind Pressure Humidity
    00:00 +26°C° 0 mm 5 mps 754 mmHg 49%
    01:00 +26°C° 0 mm 4 mps 754 mmHg 47%
    02:00 +26°C° 0 mm 4 mps 753 mmHg 45%
    03:00 +26°C° 0 mm 3 mps 753 mmHg 43%
    04:00 +26°C° 0 mm 3 mps 753 mmHg 43%
    05:00 +26°C° 0 mm 2 mps 753 mmHg 43%
    06:00 +26°C° 0 mm 2 mps 754 mmHg 42%
    07:00 +29°C° 0 mm 1 mps 754 mmHg 37%
    08:00 +32°C° 0 mm 1 mps 754 mmHg 32%
    09:00 +35°C° 0 mm 1 mps 754 mmHg 26%
    10:00 +37°C° 0 mm 2 mps 753 mmHg 24%
    11:00 +39°C° 0 mm 2 mps 753 mmHg 22%
    12:00 +40°C° 0 mm 3 mps 753 mmHg 21%
    13:00 +40°C° 0 mm 3 mps 752 mmHg 21%
    14:00 +41°C° 0 mm 4 mps 752 mmHg 21%
    15:00 +41°C° 0 mm 4 mps 751 mmHg 21%
    16:00 +40°C° 0 mm 4 mps 751 mmHg 24%
    17:00 +37°C° 0 mm 4 mps 751 mmHg 26%
    18:00 +36°C° 0 mm 4 mps 751 mmHg 29%
    19:00 +35°C° 0 mm 4 mps 751 mmHg 32%
    20:00 +33°C° 0 mm 4 mps 751 mmHg 35%
    21:00 +32°C° 0 mm 4 mps 751 mmHg 38%
    22:00 +32°C° 0 mm 4 mps 751 mmHg 38%
    23:00 +32°C° 0 mm 4 mps 751 mmHg 38%

    24 January, Thursday

    Time Temperature Precipitation Wind Pressure Humidity
    00:00 +32°C° 0 mm 4 mps 750 mmHg 37%
    01:00 +32°C° 0 mm 4 mps 750 mmHg 38%
    02:00 +32°C° 0 mm 4 mps 750 mmHg 38%
    03:00 +32°C° 0 mm 4 mps 749 mmHg 38%
    04:00 +32°C° 0 mm 4 mps 749 mmHg 37%
    05:00 +33°C° 0 mm 4 mps 749 mmHg 36%
    06:00 +34°C° 0 mm 4 mps 749 mmHg 34%
    07:00 +37°C° 0 mm 5 mps 749 mmHg 29%
    08:00 +40°C° 0 mm 5 mps 749 mmHg 23%
    09:00 +43°C° 0 mm 5 mps 749 mmHg 17%
    10:00 +45°C° 0 mm 5 mps 749 mmHg 16%
    11:00 +46°C° 0 mm 5 mps 748 mmHg 15%
    12:00 +48°C° 0 mm 6 mps 747 mmHg 13%
    13:00 +48°C° 0 mm 5 mps 747 mmHg 14%
    14:00 +47°C° 0 mm 5 mps 746 mmHg 14%
    15:00 +47°C° 0 mm 4 mps 746 mmHg 14%
    16:00 +45°C° 0 mm 5 mps 746 mmHg 19%
    17:00 +42°C° 0 mm 6 mps 747 mmHg 24%
    18:00 +40°C° 0 mm 6 mps 747 mmHg 28%
    19:00 +35°C° 0 mm 6 mps 748 mmHg 37%
    20:00 +32°C° 0 mm 5 mps 748 mmHg 46%
    21:00 +28°C° 0 mm 4 mps 749 mmHg 54%
    22:00 +27°C° 0.2 mm 4 mps 750 mmHg 54%
    23:00 +27°C° 0.2 mm 4 mps 750 mmHg 54%
    Show more